Weather Roundup
Issued by NWS Springfield, MO

Home | Current Version | Previous Version | Text Only | Print | Product List | Glossary On
Versions: 1 2 3 4 5 6 7 8 9 10 11 12 13 14 15 16 17 18 19 20 21 22 23 24 25 26 27 28 29 30 31 32 33 34 35 36 37 38 39 40 41 42 43 44 45 46 47 48 49 50
000
NZUS99 KSGF 020107
HRRSGF

HOURLY WEATHER
NATIONAL WEATHER SERVICE SPRINGFIELD MO
800 PM CDT MON SEP 01 2014

......SGF CWA......

CITY           SKY/WX    TMP DP  RH WIND       PRES   REMARKS
SPRINGFIELD    MOCLDY    82  70  66 S13       29.85S
JOPLIN         CLOUDY    82  72  71 CALM      29.82R THUNDER
WEST PLAINS    CLEAR     80  68  66 S6        29.92F
ROLLA          CLOUDY    77  67  71 S7        29.88F
OSAGE BEACH    MOCLDY    77  70  78 SE3       29.85F
BRANSON        PTCLDY    81  70  69 S6        29.91S

......SURROUNDING SGF CWA......

CITY           SKY/WX    TMP DP  RH WIND       PRES   REMARKS
CHANUTE        PTCLDY    79  71  76 E7        29.81R
PARSONS        MOCLDY    80  72  76 W3        29.84R THUNDER
COFFEYVILLE    TSTM      76  72  87 SE15G22   29.76F
EMPORIA        CLOUDY    74  69  85 NE6       29.84F
GROVE OK       PTCLDY    84  72  65 S10       29.83F THUNDER
ROGERS AR      MOCLDY    82  69  64 SE9       29.90R
HARRISON AR    CLEAR     78  70  76 S9        29.90F
NEAR YELLVILLE CLEAR     82  66  57 SE3       29.89S

......KANSAS AND MISSOURI......

CITY           SKY/WX    TMP DP  RH WIND       PRES   REMARKS
KANSAS CTY INT MOCLDY    75  70  84 CALM      29.85F
DOWNTOWN KC    CLOUDY    78  68  71 N3        29.84F
COLUMBIA       LGT RAIN  71  69  93 NE7       29.87F
SEDALIA        TSTM      72  70  93 SE5       29.88R FOG
ST JOSEPH      PTCLDY    73  68  84 N8        29.85F
ST LOUIS       CLOUDY    77  70  78 N3        29.89F
SPIRIT OF STL  CLOUDY    75  72  90 SE3       29.87S
KIRKSVILLE     PTCLDY    72  69  90 W3        29.86S
WICHITA        CLOUDY    79  69  71 NE16      29.84R
TOPEKA         LGT RAIN  75  72  90 N5        29.83F
OLATHE         CLOUDY    75  68  78 CALM      29.85S

......TENNESSEE......

CITY           SKY/WX    TMP DP  RH WIND       PRES   REMARKS
MEMPHIS        CLEAR     84  72  67 S6        29.97R
NASHVILLE      PTCLDY    84  67  56 SW6       30.01R

......ARKANSAS.......

CITY           SKY/WX    TMP DP  RH WIND       PRES   REMARKS
FAYETTEVILLE   CLEAR     81  69  67 S8        29.88F
FT SMITH       CLEAR     87  70  56 S10       29.84F HX  92
LITTLE ROCK    PTCLDY    83  72  69 S8        29.92S

......OKLAHOMA.......

CITY           SKY/WX    TMP DP  RH WIND       PRES   REMARKS
TULSA          MOCLDY    90  71  53 S16       29.76S HX  96
PONCA CITY     PTCLDY    91  69  48 S10       29.73R HX  96
MCALESTER      CLEAR     87  69  54 S9G20     29.83F HX  91
OKLAHOMA CITY  PTCLDY    90  69  50 S17       29.78F HX  94

......IOWA............

CITY           SKY/WX    TMP DP  RH WIND       PRES   REMARKS
DES MOINES     CLOUDY    73  64  73 W5        29.85S
QUAD CITIES    CLEAR     73  66  78 W8        29.82R

......ILLINOIS........

CITY           SKY/WX    TMP DP  RH WIND       PRES   REMARKS
QUINCY         CLOUDY    76  68  76 CALM      29.85F
CHICAGO        PTCLDY    77  63  61 SW13      29.79R



USA.gov is the U.S. government's official web portal to all federal, state and local government web resources and services.